Regional Weather Roundup
Issued by NWS

Home | Current Version | Previous Version | Graphics & Text | Print | Product List | Glossary On
Versions: 1 2 3 4 5 6 7 8 9 10 11 12 13 14 15 16 17 18 19 20 21 22 23 24 25 26 27 28 29 30 31 32 33 34 35 36 37 38 39 40 41 42 43 44 45 46 47 48 49 50
329
ASUS43 KFSD 230110
RWRSD

WEATHER ROUNDUP FOR SOUTH DAKOTA
NATIONAL WEATHER SERVICE SIOUX FALLS SD
700 PM CST WED FEB 22 2017

NOTE: "FAIR" INDICATES FEW OR NO CLOUDS BELOW 12,000 FEET WITH NO
SIGNIFICANT WEATHER AND/OR OBSTRUCTIONS TO VISIBILITY.


SDZ001>005-009-010-012>017-230200-
NORTHWEST AND NORTH CENTRAL SOUTH DAKOTA

CITY           SKY/WX    TMP DP  RH WIND       PRES   REMARKS
BUFFALO          N/A     33  29  85 NE6       29.86R WCI  28
FAITH            N/A     32  30  92 N18       29.90R WCI  20
MOBRIDGE       CLOUDY    34  27  75 N14       29.90R WCI  25
$$

SDZ012>016-024>037-041>051-057-063-072>074-230200-
SOUTHWEST AND SOUTH CENTRAL SOUTH DAKOTA

CITY           SKY/WX    TMP DP  RH WIND       PRES   REMARKS
RAPID CTY ARPT MOCLDY    36  28  73 N26G35    29.86R
PIERRE         CLOUDY    37  31  78 N17       29.86R
CUSTER         CLEAR     35  18  49 NW5       29.80R
ELLSWORTH AFB  CLOUDY    37  29  73 N18       29.87R
PHILIP         CLOUDY    37  30  75 N15       29.89R
PINE RIDGE     CLOUDY    43  32  65 N14       29.84R
SPEARFISH      CLOUDY    34  28  80 N10       29.89R WCI  26
WINNER         FAIR      44  37  76 N7        29.85R
$$

SDZ004>011-016>023-039-040-230200-
NORTHEAST SOUTH DAKOTA

CITY           SKY/WX    TMP DP  RH WIND       PRES   REMARKS
ABERDEEN       CLOUDY    32  26  78 N17       29.89R WCI  21
WATERTOWN      CLOUDY    33  30  88 N16       29.80R WCI  23
BROOKINGS      MOCLDY    38  35  89 N18       29.76R
SISSETON         N/A     33  31  92 N20       29.83R WCI  21
$$

SDZ017-020-022-023-036>040-048>070-230200-
SOUTHEAST SOUTH DAKOTA

CITY           SKY/WX    TMP DP  RH WIND       PRES   REMARKS
SIOUX FALLS    CLOUDY    45  38  76 NW14      29.77R
HURON          CLOUDY    36  33  89 N18       29.83R
CHAMBERLAIN    PTCLDY    44  39  83 NW12      29.82R
MITCHELL       CLOUDY    41  38  89 N16       29.83R
YANKTON        PTCLDY    48  37  66 N7        29.76R
$$

ABBREVIATIONS USED IN REMARKS
   TC - TEMPERATURE IN CELSIUS
  WCI - WIND CHILL INDEX
   HX - HEAT INDEX
  VSB - VISIBILITY





USA.gov is the U.S. government's official web portal to all federal, state and local government web resources and services.